Skip Page Navigation
NASA JPL Caltech
NASA Logo - Jet Propulsion Laboratory + View the NASA Portal
+ Center for Near-Earth Object Studies
JPL Home Earth Solar System Stars & Galaxies Technology
JPL Solar System Dynamics
BODIES ORBITS EPHEMERIDES TOOLS PHYSICAL DATA DISCOVERY FAQ SITE MAP
JPL Small-Body Database Browser
Search: [ help ]  
11762 Vogel (6044 P-L)
Classification: Main-belt Asteroid          SPK-ID: 2011762
Ephemeris | Orbit Diagram | Orbital Elements | Mission Design | Physical Parameters | Discovery Circumstances | Close-Approach Data ]

[ show orbit diagram ]
Orbital Elements at Epoch 2459000.5 (2020-May-31.0) TDB
Reference: JPL 33 (heliocentric ecliptic J2000)
 Element Value Uncertainty (1-sigma)   Units 
e .02718539237009622 3.0113e-08  
a 2.903175191290754 1.2397e-08 au
q 2.824251234596386 8.7001e-08 au
i 1.292086542238626 3.8672e-06 deg
node 316.711189176431 0.00013624 deg
peri 304.2540703749045 0.00015403 deg
M 116.1145596721102 7.1503e-05 deg
tp 2458417.736327245546
(2018-Oct-26.23632725)
0.00035966 TDB
period 1806.792557143845
4.95
1.1573e-05
3.169e-08
d
yr
n .1992481087973284 1.2762e-09 deg/d
Q 2.982099147985123 1.2734e-08 au
  Orbit Determination Parameters
   # obs. used (total)      2563  
   data-arc span      21635 days (59.23 yr)  
   first obs. used      1960-09-24  
   last obs. used      2019-12-19  
   planetary ephem.      DE431  
   SB-pert. ephem.      SB431-N16  
   condition code      0  
   norm. resid. RMS      .47672  
   source      ORB  
   producer      Otto Matic  
   solution date      2020-Feb-22 20:08:49  

Additional Information
 Earth MOID = 1.80891 au 
 Jupiter MOID = 2.0199 au 
 T_jup = 3.285 
[ show covariance matrix ]

Ephemeris | Orbit Diagram | Orbital Elements | Mission Design | Physical Parameters | Discovery Circumstances | Close-Approach Data ]

Physical Parameter Table
Parameter Symbol Value Units Sigma Reference Notes
absolute magnitude H 13.3   n/a MPO502259  
diameter diameter 5.886 km 0.790 urn:nasa:pds:neowise_diameters_albedos::2.0[mainbelt] (http://adsabs.harvard.edu/abs/2012ApJ...759L...8M)  
rotation period rot_per 6.218 h n/a LCDB (Rev. 2019-August); Warner et al., 2009 Result based on less than full coverage, so that the period may be wrong by 30 percent or so.
Published Reference List:
[Waszczak, A.; Chang, C.-K.; Ofeck, E.O.; Laher, F.; et al. (2015) Astron. J. 150, A75.]
geometric albedo albedo 0.293   0.101 urn:nasa:pds:neowise_diameters_albedos::2.0[mainbelt] (http://adsabs.harvard.edu/abs/2012ApJ...759L...8M)  

11762 Vogel           Discovered 1960 Sept. 24 by C. J. van Houten and I. van Houten-Groeneveld on Palomar Schmidt plates taken by T. Gehrels.
Hermann Carl Vogel (1841-1907) was a German astronomer and spectroscopist. He invented an early scheme to classify stellar spectra and confirmed the sun's rotation. He directed the Potsdam Astrophysical Observatory from 1882 to 1907.
NOTE: some special characters may not display properly (any characters within {} are an attempt to place the proper accent above a character)
Reference: 20070926/MPCPages.arcLast Updated: 2007-09-30

[ show close-approach data ]
Alternate Designations
 6044 P-L = 1998 GB1 
Ephemeris | Orbit Diagram | Orbital Elements | Mission Design | Physical Parameters | Discovery Circumstances | Close-Approach Data ]
ABOUT SSD CREDITS/AWARDS PRIVACY/COPYRIGHT GLOSSARY LINKS
FirstGov 2020-Jul-13 16:00 UT
(server date/time)  
NASA Home Page
Site Manager:   Ryan S. Park
Webmaster  Alan B. Chamberlin